Das Wetter in  D-61279 Heinzenberg / Taunus





Wetter Minimum- & Maximum-Werte im Juli 2015

Standort: Heinzenberg / Taunus - Höhe 297 m         8 24' 1" Ost 50 21' 51" Nord
(   3-stündige Aktualisierung    letzte Aktualisierung um 19:04 am 31.07.2015  )


Messgrösse

Minimum

Maximum

Durchschnitt

Temperatur West /
Luftfeuchte West
Anklicken für Monats-Diagramm

5,5 C

05:53
10.07.2015

24 %

15:28
10.07.2015

38,4 C

17:33
04.07.2015

90 %

10:40
27.07.2015

Temp

20,6 C

Feuchte

63 %

Temperatur Ost /
Luftfeuchte Ost
Anklicken für Monats-Diagramm

6,2 C

05:38
10.07.2015

--

--
--

37,4 C

15:24
05.07.2015

--

--
--

20,4 C

--

Luftdruck Anklicken für Monats-Diagramm

1001,7 hPa

09:55
27.07.2015

1025,7 hPa

05:53
10.07.2015

1014,8 hPa

Taupunkt

2,2 C

05:53
10.07.2015

22,5 C

17:12
03.07.2015

12,6 C

Windchill
( gefühlte Temperatur )

4,0 C

21:38
25.07.2015

38,4 C

17:33
04.07.2015

19,0 C

Windgeschwindigkeit /
Windrichtung
Anklicken für Monats-Diagramm

---

66,0 km/h / W

12:48
25.07.2015

10,9 km/h
W

Helligkeit /
Sonnenschein
Anklicken für Monats-Diagramm
Anklicken für Monats-Diagramm

Sonnenschein:

204:41 Stunden

Max: 14:00 Std am
01.07.2015

112 klux

13:43
20.07.2015

34 klux

Solarstrahlung Anklicken für Monats-Diagramm

---

766 W/m

13:43
20.07.2015

246 W/m

Regenmenge
    Juli 2015
Anklicken für Monats-Diagramm

Insgesamt 49,2 l/m

in 37:21 Stunden
an 19 Tagen

18,7 l/m

06:12
19.07.2015

Gesamtmenge

49,2 l/m

Regen-Tage
    Juli 2015
Anklicken für Monats-Diagramm

>   0 mm/Tag

>   2 mm/Tag

>   5 mm/Tag

> 10 mm/Tag

> 20 mm/Tag

19 Tage     
5 Tage     
3 Tage     
  1 Tag     
0 Tage     

Eisige Tage Juli 2015 / 2014

Tmin ≤ -10C     

0 Tage

/

0 Tage

Eistage Juli 2015 / 2014

Tmax <     0C     

0 Tage

/

0 Tage

Frosttage Juli 2015 / 2014

Tmin ≤     0C     

0 Tage

/

0 Tage

Kalte Tage Juli 2015 / 2014

Tmax <   10C     

0 Tage

/

0 Tage

Warme Tage Juli 2015 / 2014

Tmax ≥   20C     

28 Tage

/

29 Tage

Sommertage Juli 2015 / 2014

Tmax ≥   25C     

19 Tage

/

20 Tage

Heisse Tage Juli 2015 / 2014

Tmax ≥   30C     

13 Tage

/

8 Tage


Monatsdiagramm Juli 2015

Die Kurven zeigen den Durchschnittswert des jeweiligen Tages an


Wetter-Monatsübersicht Juli 2015
Datum
  Temperatur
   Luftdruck
   Wind
  Regen
   Luftfeuchte
   Helligkeit

Sonnen-
schein


Temp.

Min.
Temp.

Max.
Temp.


Luftdruck

Min.
Luftdruck

Max.
Luftdruck

-Geschw.
Haupt-Richtg.

Max.
Wind

Menge /
Dauer


Feuchte

Min.
Feuchte

Max.
Feuchte


Helligkeit

Max.
Helligkeit

1.
Juli
24,4 C13,3 C
06:10
35,4 C
17:10
1018,6 hPa1016,0 hPa
17:10
1020,6 hPa
06:10
6,7 km/h
SO
27,0 km/h
16:00  
---
54 %31 %
15:50
78 %
06:25
43,1 klux78,4 klux
13:30
14:00 Std 
2.
Juli
27,3 C16,4 C
06:16
37,4 C
16:26
1018,6 hPa1016,8 hPa
16:26
1020,3 hPa
23:52
8,9 km/h
O-SO
58,2 km/h
12:51  
---
53 %32 %
17:51
78 %
06:26
41,6 klux77,4 klux
13:41
12:50 Std 
3.
Juli
27,8 C20,4 C
05:37
36,1 C
17:57
1021,0 hPa1019,1 hPa
18:02
1023,5 hPa
09:37
4,0 km/h
W
15,8 km/h
15:32  
---
60 %41 %
17:42
79 %
07:37
38,7 klux76,5 klux
14:42
8:35 Std 
4.
Juli
28,5 C19,5 C
06:03
38,4 C
17:33
1018,4 hPa1015,8 hPa
18:03
1021,3 hPa
00:08
8,4 km/h
W-SW
31,7 km/h
14:13  
---
56 %26 %
16:43
80 %
06:03
37,8 klux76,7 klux
13:38
8:15 Std 
5.
Juli
28,3 C19,4 C
23:55
38,2 C
15:19
1014,4 hPa1008,6 hPa
17:34
1018,5 hPa
03:49
13,4 km/h
W-SW
42,9 km/h
19:29  
---
5 Minuten
55 %27 %
14:49
79 %
23:35
39,2 klux94,5 klux
13:14
8:25 Std 
6.
Juli
21,3 C15,7 C
06:30
29,3 C
17:05
1019,8 hPa1015,7 hPa
00:00
1022,3 hPa
08:15
10,0 km/h
NW
27,8 km/h
12:30  
0,8 l/m
50 Minuten
60 %34 %
15:50
85 %
06:50
43,0 klux76,8 klux
13:40
13:20 Std 
7.
Juli
22,2 C12,3 C
05:41
34,5 C
15:41
1011,4 hPa1005,1 hPa
17:41
1018,2 hPa
01:46
8,6 km/h
W-SW
34,0 km/h
17:56  
1,4 l/m
2:15 Stunden
58 %32 %
13:21
78 %
21:46
35,7 klux88,6 klux
14:26
8:10 Std 
8.
Juli
17,1 C14,0 C
07:42
21,6 C
15:32
1011,2 hPa1007,5 hPa
00:32
1014,3 hPa
22:12
26,1 km/h
W
49,4 km/h
14:32  
2,0 l/m
3:00 Stunden
64 %45 %
15:27
84 %
22:07
36,9 klux100,0 klux
13:47
4:25 Std 
9.
Juli
15,0 C11,0 C
23:58
18,8 C
18:12
1020,4 hPa1019,1 hPa
12:02
1024,0 hPa
23:58
17,9 km/h
W-NW
34,3 km/h
16:12  
---
60 %52 %
14:12
66 %
23:48
38 klux91 klux
14:07
2:50 Std 
10.
Juli
16,3 C5,5 C
05:53
27,0 C
16:58
1022,5 hPa1018,1 hPa
19:28
1025,7 hPa
05:53
3,2 km/h
NW
24,3 km/h
15:33  
---
53 %24 %
15:28
83 %
08:23
43,8 klux77,9 klux
13:33
13:45 Std 
11.
Juli
20,7 C9,4 C
05:44
31,4 C
15:24
1015,9 hPa1013,4 hPa
15:24
1019,6 hPa
01:39
6,9 km/h
NW
26,1 km/h
17:54  
---
48 %30 %
14:39
74 %
07:54
39,6 klux84,1 klux
11:49
8:40 Std 
12.
Juli
18,1 C13,1 C
06:15
24,6 C
12:15
1017,7 hPa1016,2 hPa
12:15
1019,4 hPa
23:06
6,6 km/h
NW
29,3 km/h
13:30  
1,1 l/m
2:40 Stunden
63 %37 %
12:25
83 %
22:41
26,6 klux83,5 klux
14:00
2:55 Std 
13.
Juli
16,3 C14,5 C
02:21
18,5 C
18:41
1017,6 hPa1015,8 hPa
18:41
1019,4 hPa
00:01
9,8 km/h
W-SW
29,3 km/h
15:01  
1,8 l/m
6:00 Stunden
82 %74 %
10:06
88 %
21:46
13,5 klux41,7 klux
14:41
--- 
14.
Juli
19,2 C16,7 C
01:36
24,3 C
15:27
1016,5 hPa1014,9 hPa
07:27
1018,9 hPa
23:38
17,2 km/h
W
35,0 km/h
14:47  
---
25 Minuten
76 %59 %
15:32
87 %
00:01
18,7 klux106,0 klux
12:12
30 Min 
15.
Juli
21,9 C16,9 C
05:58
29,4 C
17:03
1018,4 hPa1015,8 hPa
18:03
1020,2 hPa
05:58
7,1 km/h
W
28,4 km/h
14:53  
---
15 Minuten
65 %44 %
17:03
81 %
06:08
34 klux101 klux
14:08
4:59 Std 
16.
Juli
23,9 C15,2 C
06:39
33,3 C
17:24
1016,9 hPa1013,2 hPa
18:54
1019,3 hPa
06:39
1,9 km/h
O-SO
17,7 km/h
14:14  
---
62 %39 %
17:04
86 %
08:14
38 klux91 klux
15:04
8:50 Std 
17.
Juli
27,2 C17,3 C
04:40
36,5 C
16:25
1013,0 hPa1010,7 hPa
16:25
1015,8 hPa
06:00
12,8 km/h
W-SW
36,8 km/h
11:15  
---
20 Minuten
49 %28 %
15:55
76 %
04:45
34,4 klux82,6 klux
13:55
7:10 Std 
18.
Juli
24,5 C19,2 C
06:31
31,6 C
15:31
1014,7 hPa1012,8 hPa
00:01
1017,4 hPa
11:16
11,2 km/h
W
44,4 km/h
13:11  
---
25 Minuten
57 %37 %
15:31
75 %
07:31
35,6 klux95,9 klux
12:36
7:15 Std 
19.
Juli
19,8 C15,0 C
06:42
26,3 C
15:02
1010,8 hPa1008,7 hPa
15:02
1014,6 hPa
01:02
10,6 km/h
W
57,7 km/h
15:02  
18,7 l/m
3:10 Stunden
74 %59 %
00:02
88 %
08:27
26,9 klux100,0 klux
14:57
2:10 Std 
20.
Juli
19,4 C14,7 C
04:23
24,6 C
18:53
1013,7 hPa1012,0 hPa
18:53
1015,0 hPa
08:28
3,0 km/h
W-SW
20,5 km/h
13:53  
3,8 l/m
3:49 Stunden
83 %72 %
12:53
89 %
08:43
19 klux112 klux
13:43
55 Min 
21.
Juli
24,3 C19,2 C
05:54
31,0 C
16:09
1013,4 hPa1011,4 hPa
18:29
1015,2 hPa
11:39
12,5 km/h
W-SW
36,0 km/h
13:24  
---
68 %46 %
16:09
85 %
03:24
36 klux95 klux
13:14
8:25 Std 
22.
Juli
23,3 C17,2 C
05:45
30,6 C
15:15
1013,2 hPa1011,4 hPa
15:15
1014,8 hPa
03:45
7,6 km/h
NW
22,3 km/h
16:20  
---
69 %51 %
14:25
86 %
07:40
34,4 klux86,2 klux
12:05
5:10 Std 
23.
Juli
20,3 C15,4 C
07:01
27,0 C
15:11
1015,7 hPa1014,2 hPa
19:56
1017,2 hPa
07:36
7,4 km/h
NW
25,7 km/h
14:01  
---
59 %41 %
15:06
75 %
05:16
33,7 klux104,0 klux
13:51
6:45 Std 
24.
Juli
21,4 C11,8 C
05:57
30,4 C
17:07
1010,1 hPa1003,0 hPa
22:52
1016,3 hPa
01:32
4,8 km/h
SO
51,6 km/h
23:53  
---
15 Minuten
59 %39 %
16:52
81 %
07:32
33 klux92 klux
14:52
5:25 Std 
25.
Juli
16,8 C12,1 C
23:58
21,0 C
13:08
1007,3 hPa1002,3 hPa
09:53
1016,6 hPa
23:58
27,0 km/h
W
66,0 km/h
12:48  
8,2 l/m
3:40 Stunden
75 %57 %
13:08
86 %
14:03
26,6 klux101,0 klux
12:13
4:16 Std 
26.
Juli
15,0 C9,0 C
05:48
24,1 C
16:13
1013,3 hPa1007,2 hPa
22:29
1018,0 hPa
05:48
7,7 km/h
W-SW
26,8 km/h
14:18  
2,7 l/m
3:42 Stunden
64 %36 %
16:38
84 %
06:18
33 klux95 klux
13:58
6:25 Std 
27.
Juli
15,9 C13,0 C
00:00
19,2 C
14:10
1003,9 hPa1001,7 hPa
09:55
1006,1 hPa
00:00
19,9 km/h
W
55,0 km/h
16:25  
7,3 l/m
5:15 Stunden
77 %64 %
18:35
90 %
10:40
21,9 klux104,0 klux
12:15
1:15 Std 
28.
Juli
16,1 C12,9 C
04:51
20,7 C
15:36
1007,4 hPa1004,6 hPa
00:16
1010,0 hPa
23:57
25,4 km/h
W
46,2 km/h
11:26  
1,5 l/m
55 Minuten
61 %43 %
15:41
83 %
01:21
30 klux104 klux
13:41
4:30 Std 
29.
Juli
15,7 C12,4 C
23:53
21,9 C
16:07
1009,6 hPa1007,2 hPa
16:07
1013,5 hPa
23:53
17,7 km/h
W
39,9 km/h
10:52  
---
15 Minuten
59 %37 %
16:12
73 %
07:47
34 klux94 klux
14:42
6:30 Std 
30.
Juli
13,7 C7,8 C
05:18
21,7 C
16:23
1015,3 hPa1013,5 hPa
00:13
1018,7 hPa
23:59
8,8 km/h
NW
34,5 km/h
14:33  
---
5 Minuten
65 %45 %
13:08
79 %
07:23
31,4 klux107,0 klux
14:13
6:10 Std 
31.
Juli
16,0 C7,9 C
06:34
25,6 C
16:23
1018,4 hPa1015,0 hPa
18:29
1021,3 hPa
06:34
3,8 km/h
NO
25,9 km/h
19:14  
---
59 %30 %
16:23
87 %
08:49
42 klux85 klux
13:44
11:51 Std 



Juli
2015

Temperatur

  

Luftdruck

  

Wind

  

Regen

  

Luftfeuchte

  

Helligkeit

Sonnen-
schein

Min

Max

Min

Max

Max

Max

Min

Max

Max

Max

20,6 C

5,5 C

05:53 Uhr
10.07.2015

38,4 C

17:33 Uhr
04.07.2015

1014,8 hPa

1001,7 hPa

09:55 Uhr
27.07.2015

1025,7 hPa

05:53 Uhr
10.07.2015

10,9 km/h

W

66,0 km/h

12:48 Uhr
25.07.2015

18,7 l/m

3:10 Stunden
19.07.2015

63 %

24 %

15:28 Uhr
10.07.2015

90 %

10:40 Uhr
27.07.2015

33,5 klux

112,0 klux

13:43 Uhr
20.07.2015

14:00 Std

am
01.07.2015

Gesamt

Gesamt

49,2 l/m

19 Tage
37:21 h

204:41 Std


Wetter-Diagramme Juli 2015     Heinzenberg / Taunus   
TemperaturLuftfeuchte
SolarstrahlungLuftdruck
HelligkeitSonnenschein
RegenmengeRegendauer
Wind-GeschwindigkeitWind-Richtung